Weather in Sadovy

Russia / Sverdlovsk Oblast     56°57′20″N   60°40′38″E
temp.,
°C
wind,
m/s
gust,
m/s
humid.,
%
clouds,
%
prec.,
mm/h
press.,
hPa
HPBL,
m
17 september, fri
fri1723:00+4w51097100 0.4 9991026
02:00+3wnw51097100 1.0 999945
05:00+3wnw51097100 1.1 1000740
08:00+3nw4997100 0.3 1001802
11:00+4nw5997100 0.4 1002941
14:00+4nnw4994100 0.2 1004903
17:00+4nnw499497 0.4 1006737
20:00+3nw2693100 0.1 1008362
18 september, sat
sat1823:00+3nw2597100 0.3 1008560
02:00+2w1399100 0.6 1009139
05:00+1w2499100 1.0 1009120
08:00+2wnw3595100 0.2 1008400
11:00+5wnw4672100 0.3 10081137
14:00+6nw686896 0.4 10081409
17:00+5wnw5106693 0.7 10081386
20:00+3wnw5127825 0.1 1009874
19 september, sun
sun1923:00+2wnw61179100 0.1 10081052
02:00+2wnw61280100 0.1 10081240
05:00+1wnw71483100 0.2 10071281
08:00+1wnw81680100 0.1 10071240
11:00+3wnw81477100 0.2 10081177
14:00+5nw71166100 0.1 10101196
17:00+4nw7106899 0.2 10131200
20:00+2nw6117887 0.0 1016921
20 september, mon
mon2023:00+2nw5118246 0.0 1018668
02:00+1nw41086100 0.0 1020487
05:000wnw389383 0.0 1022272
08:00+1nw398471 0.0 1024384
11:00+4nnw4770100 0.0 1026981
14:00+5nnw4661100 0.0 10271361
17:00+4nnw2668100 0.0 1028907
20:00+3nnw2578100 0.0 1030200
21 september, tue
tue2123:00+2nnw248198 0.0 1030137
02:00+2nw128339 0.0 103164
05:00−1w11925 0.0 103110
08:00+1wsw12825 0.0 103178
11:00+7w235612 0.0 1030994
14:00+10w33465 0.0 10291192
17:00+10wnw34475 0.0 10271193
20:00+4wnw23745 0.0 102841